| time (UTC) | temp F | wind direction | speed MPH | gust MPH | rain 1hr in | rain 24hr in | rain mn in | humidity % | barometer mb |
| 20260902140042 | 85 | 96 | 1.0 | 3.0 | 0.00 | 0.00 | 0.00 | 57 | 1010.7 |
| 20260902134537 | 0 | 0.0 | 0.0 | 0.00 | 0.00 | 0.00 | 1010.4 | ||
| 20260902133032 | 0 | 0.0 | 0.0 | 0.00 | 0.00 | 0.00 | 1010.2 | ||
| 20260902131543 | 0 | 0.0 | 0.0 | 0.00 | 0.00 | 0.00 | 1010.1 | ||
| 20260902130030 | 0 | 0.0 | 0.0 | 0.00 | 0.00 | 0.00 | 1010.0 | ||
| 20260902124525 | 0 | 0.0 | 0.0 | 0.00 | 0.00 | 0.00 | 1009.9 | ||
| 20260902123020 | 0 | 0.0 | 0.0 | 0.00 | 0.00 | 0.00 | 1009.7 | ||
| 20260902121516 | 0 | 0.0 | 0.0 | 0.00 | 0.00 | 0.00 | 1009.6 | ||
| 20260902120012 | 0 | 0.0 | 0.0 | 0.00 | 0.00 | 0.00 | 1009.4 | ||
| 20260902114505 | 0 | 0.0 | 0.0 | 0.00 | 0.00 | 0.00 | 1009.4 | ||
| 20260902113113 | 0 | 0.0 | 0.0 | 0.00 | 0.00 | 0.00 | 1009.5 | ||
| 20260902111557 | 0 | 0.0 | 0.0 | 0.00 | 0.00 | 0.00 | 1009.3 | ||
| 20260902110052 | 0 | 0.0 | 0.0 | 0.00 | 0.00 | 0.00 | 1009.2 | ||
| 20260902104555 | 84 | 97 | 0.0 | 1.0 | 0.00 | 0.00 | 0.00 | 57 | 1009.3 |
| 20260902103055 | 84 | 88 | 0.0 | 2.0 | 0.00 | 0.00 | 0.00 | 57 | 1009.3 |
| 20260902101547 | 84 | 86 | 0.0 | 0.0 | 0.00 | 0.00 | 0.00 | 57 | 1009.3 |
| 20260902094542 | 85 | 87 | 0.0 | 0.0 | 0.00 | 0.00 | 0.00 | 57 | 1009.2 |
| 20260902093040 | 85 | 85 | 0.0 | 1.0 | 0.00 | 0.00 | 0.00 | 56 | 1009.2 |
| 20260902091559 | 85 | 98 | 0.0 | 1.0 | 0.00 | 0.00 | 0.00 | 56 | 1009.2 |
| 20260902090039 | 86 | 86 | 0.0 | 1.0 | 0.00 | 0.00 | 0.00 | 55 | 1009.3 |
| 20260902084508 | 86 | 94 | 0.0 | 1.0 | 0.00 | 0.00 | 0.00 | 55 | 1009.4 |
| 20260902083005 | 86 | 94 | 0.0 | 1.0 | 0.00 | 0.00 | 0.00 | 54 | 1009.3 |
| 20260902081501 | 86 | 95 | 0.0 | 0.0 | 0.00 | 0.00 | 0.00 | 53 | 1009.4 |
| 20260902080113 | 87 | 95 | 0.0 | 0.0 | 0.00 | 0.00 | 0.00 | 50 | 1009.4 |
| 20260902074611 | 87 | 95 | 0.0 | 1.0 | 0.00 | 0.00 | 0.00 | 51 | 1009.4 |
| 20260902073109 | 87 | 95 | 0.0 | 0.0 | 0.00 | 0.00 | 0.00 | 51 | 1009.3 |
| 20260902071610 | 88 | 95 | 0.0 | 1.0 | 0.00 | 0.00 | 0.00 | 49 | 1009.0 |
| 20260902070055 | 88 | 97 | 0.0 | 0.0 | 0.00 | 0.00 | 0.00 | 48 | 1008.9 |
| 20260902064554 | 89 | 79 | 0.0 | 2.0 | 0.00 | 0.00 | 0.00 | 46 | 1008.8 |
| 20260902063055 | 89 | 94 | 1.0 | 2.0 | 0.00 | 0.00 | 0.00 | 46 | 1008.9 |
| 20260902061605 | 89 | 122 | 0.0 | 1.0 | 0.00 | 0.00 | 0.00 | 45 | 1008.8 |
| 20260902060050 | 88 | 134 | 0.0 | 1.0 | 0.00 | 0.00 | 0.00 | 45 | 1008.9 |
| 20260902054549 | 88 | 141 | 0.0 | 0.0 | 0.00 | 0.00 | 0.00 | 45 | 1009.0 |
| 20260902053049 | 87 | 172 | 0.0 | 0.0 | 0.00 | 0.00 | 0.00 | 49 | 1008.9 |
| 20260902051545 | 87 | 172 | 0.0 | 0.0 | 0.00 | 0.00 | 0.00 | 49 | 1008.9 |
| 20260902050045 | 87 | 172 | 0.0 | 0.0 | 0.00 | 0.00 | 0.00 | 48 | 1008.9 |
| 20260902044540 | 87 | 172 | 0.0 | 0.0 | 0.00 | 0.00 | 0.00 | 46 | 1008.7 |
| 20260902043037 | 87 | 172 | 0.0 | 0.0 | 0.00 | 0.00 | 0.00 | 46 | 1008.6 |
| 20260902041540 | 88 | 172 | 0.0 | 0.0 | 0.00 | 0.00 | 0.00 | 46 | 1008.7 |
| 20260902034556 | 90 | 172 | 0.0 | 0.0 | 0.00 | 0.00 | 0.00 | 42 | 1008.3 |
| 20260902033024 | 90 | 172 | 0.0 | 0.0 | 0.00 | 0.00 | 0.00 | 42 | 1008.0 |
| 20260902031523 | 90 | 175 | 0.0 | 0.0 | 0.00 | 0.00 | 0.00 | 41 | 1007.8 |
| 20260902030020 | 90 | 175 | 0.0 | 0.0 | 0.00 | 0.00 | 0.00 | 40 | 1007.4 |
| 20260902024520 | 90 | 175 | 0.0 | 0.0 | 0.00 | 0.00 | 0.00 | 40 | 1007.4 |
| 20260902023019 | 91 | 175 | 0.0 | 0.0 | 0.00 | 0.00 | 0.00 | 39 | 1007.3 |
| 20260902021520 | 92 | 175 | 0.0 | 0.0 | 0.00 | 0.00 | 0.00 | 38 | 1007.1 |
| 20260902020012 | 92 | 175 | 0.0 | 0.0 | 0.00 | 0.00 | 0.00 | 37 | 1007.0 |
| 20260902014511 | 94 | 175 | 0.0 | 0.0 | 0.00 | 0.00 | 0.00 | 37 | 1006.9 |
| 20260902013007 | 95 | 134 | 0.0 | 1.0 | 0.00 | 0.00 | 0.00 | 34 | 1006.9 |
| 20260902011509 | 97 | 203 | 0.0 | 2.0 | 0.00 | 0.00 | 0.00 | 34 | 1007.0 |
| 20260902010002 | 98 | 142 | 0.0 | 1.0 | 0.00 | 0.00 | 0.00 | 33 | 1007.2 |
| 20260902004602 | 99 | 222 | 0.0 | 1.0 | 0.00 | 0.00 | 0.00 | 33 | 1007.2 |
| 20260902003059 | 98 | 238 | 0.0 | 2.0 | 0.00 | 0.00 | 0.00 | 34 | 1007.4 |
| 20260902001558 | 98 | 89 | 0.0 | 1.0 | 0.00 | 0.00 | 0.00 | 34 | 1007.5 |
| 20260902000055 | 98 | 260 | 0.0 | 5.0 | 0.00 | 0.00 | 0.00 | 33 | 1007.6 |
| 20260901234555 | 99 | 264 | 0.0 | 5.0 | 0.00 | 0.00 | 0.00 | 33 | 1007.7 |
| 20260901233100 | 99 | 255 | 0.0 | 4.0 | 0.00 | 0.00 | 0.00 | 36 | 1007.7 |
| 20260901231555 | 99 | 80 | 0.0 | 4.0 | 0.00 | 0.00 | 0.00 | 32 | 1007.9 |
| 20260901230046 | 100 | 117 | 0.0 | 5.0 | 0.00 | 0.00 | 0.00 | 33 | 1008.0 |
| 20260901224545 | 99 | 221 | 0.0 | 5.0 | 0.00 | 0.00 | 0.00 | 38 | 1008.1 |
| 20260901223050 | 99 | 95 | 1.0 | 4.0 | 0.00 | 0.00 | 0.00 | 35 | 1008.2 |
| 20260901221537 | 98 | 132 | 2.0 | 5.0 | 0.00 | 0.00 | 0.00 | 35 | 1008.5 |
| 20260901220032 | 99 | 276 | 0.0 | 5.0 | 0.00 | 0.00 | 0.00 | 36 | 1008.6 |
| 20260901214530 | 99 | 236 | 0.0 | 4.0 | 0.00 | 0.00 | 0.00 | 37 | 1008.8 |
| 20260901213034 | 99 | 265 | 1.0 | 5.0 | 0.00 | 0.00 | 0.00 | 37 | 1009.2 |
| 20260901211527 | 99 | 94 | 0.0 | 3.0 | 0.00 | 0.00 | 0.00 | 39 | 1009.5 |
| 20260901210033 | 99 | 89 | 1.0 | 6.0 | 0.00 | 0.00 | 0.00 | 36 | 1009.7 |
| 20260901204522 | 98 | 15 | 2.0 | 4.0 | 0.00 | 0.00 | 0.00 | 38 | 1009.9 |
| 20260901203011 | 97 | 302 | 0.0 | 3.0 | 0.00 | 0.00 | 0.00 | 39 | 1010.2 |
| 20260901201508 | 97 | 222 | 1.0 | 6.0 | 0.00 | 0.00 | 0.00 | 41 | 1010.4 |
| 20260901200012 | 97 | 241 | 1.0 | 3.0 | 0.00 | 0.00 | 0.00 | 40 | 1010.6 |
| 20260901194605 | 96 | 89 | 0.0 | 3.0 | 0.00 | 0.00 | 0.00 | 40 | 1010.9 |
| 20260901194501 | 96 | 72 | 0.0 | 3.0 | 0.00 | 0.00 | 0.00 | 41 | 1010.9 |
| 20260901193109 | 96 | 268 | 1.0 | 5.0 | 0.00 | 0.00 | 0.00 | 42 | 1011.1 |
| 20260901191556 | 95 | 167 | 1.0 | 4.0 | 0.00 | 0.00 | 0.00 | 43 | 1011.3 |
| 20260901184549 | 94 | 210 | 0.0 | 5.0 | 0.00 | 0.00 | 0.00 | 44 | 1011.8 |
| 20260901183046 | 95 | 82 | 0.0 | 4.0 | 0.00 | 0.00 | 0.00 | 42 | 1012.1 |
| 20260901181542 | 93 | 333 | 0.0 | 3.0 | 0.00 | 0.00 | 0.00 | 45 | 1012.2 |
| 20260901180040 | 93 | 57 | 1.0 | 5.0 | 0.00 | 0.00 | 0.00 | 45 | 1012.3 |
| 20260901174548 | 93 | 275 | 0.0 | 4.0 | 0.00 | 0.00 | 0.00 | 45 | 1012.4 |
| 20260901173037 | 92 | 189 | 0.0 | 3.0 | 0.00 | 0.00 | 0.00 | 47 | 1012.5 |
| 20260901171534 | 90 | 276 | 0.0 | 5.0 | 0.00 | 0.00 | 0.00 | 49 | 1012.6 |
| 20260901170043 | 90 | 266 | 0.0 | 4.0 | 0.00 | 0.00 | 0.00 | 49 | 1012.5 |
| 20260901164526 | 89 | 110 | 0.0 | 6.0 | 0.00 | 0.00 | 0.00 | 49 | 1012.5 |
| 20260901163022 | 89 | 258 | 0.0 | 5.0 | 0.00 | 0.00 | 0.00 | 49 | 1012.4 |
| 20260901161521 | 88 | 90 | 1.0 | 4.0 | 0.00 | 0.00 | 0.00 | 48 | 1012.3 |
| 20260901160121 | 87 | 226 | 0.0 | 5.0 | 0.00 | 0.00 | 0.00 | 51 | 1012.3 |
| 20260901154602 | 86 | 238 | 0.0 | 4.0 | 0.00 | 0.00 | 0.00 | 54 | 1012.3 |
| 20260901153114 | 85 | 49 | 0.0 | 5.0 | 0.00 | 0.00 | 0.00 | 56 | 1012.1 |
| 20260901151547 | 83 | 86 | 1.0 | 6.0 | 0.00 | 0.00 | 0.00 | 57 | 1012.1 |
| 20260901150046 | 83 | 77 | 0.0 | 4.0 | 0.00 | 0.00 | 0.00 | 60 | 1012.1 |
| 20260901144550 | 82 | 316 | 2.0 | 5.0 | 0.00 | 0.00 | 0.00 | 62 | 1012.0 |
| 20260901143049 | 81 | 94 | 0.0 | 4.0 | 0.00 | 0.00 | 0.00 | 64 | 1012.0 |
| 20260901141544 | 80 | 113 | 0.0 | 5.0 | 0.00 | 0.00 | 0.00 | 65 | 1012.1 |